EUTELSAT 5 WEST A

Last updated on Oct. 23, 2020, 5:56 a.m. UTC

1 27460U 02035A   20296.82484222 -.00000056  00000-0  00000-0 0  9992
2 27460   0.8608  95.5819 0005486 118.3375 109.7330  1.00272308 66920
UTC
Height (km)
Latitude
Longitude
Inclination
Orbital Period
UTC large
Height (km)
Speed (km/s)
/
Latitude / Longitude
Inclination (degrees)
Orbital Period (minutes)
Azimuth
Elevation
Range (km)
Doppler Factor
iOS Compass Heading
iOS Angle

Next 30 passes for location: Hong Kong

Rise time Rise Azimuth (degrees) Set time Set Azimuth (degrees) Duration Max altitude (degrees)

No matching passes for this satellites